When you browse on this site, cookies collect data to enhance your experience and personalize the content and advertising you see.
Visit our Privacy Policy to learn more. By continuing to use the site, you agree to this use of cookies and data.
  • In France
  • List of Countries
  • For 7 days
  • Water Temperature
  • Weather Map
  • Weather Widgets
  • user-avatar
    Login

    Hourly Weather Wysokin

    Today, 15 October, Tuesday

    Time Temperature Precipitation Wind Pressure Humidity
    00:00 +15°C° 0 mm 1 mps 749 mmHg 75%
    01:00 +15°C° 0 mm 2 mps 749 mmHg 76%
    02:00 +15°C° 0 mm 2 mps 748 mmHg 77%
    03:00 +14°C° 0 mm 2 mps 748 mmHg 78%
    04:00 +13°C° 0 mm 3 mps 747 mmHg 79%
    05:00 +13°C° 0 mm 3 mps 747 mmHg 79%
    06:00 +13°C° 0 mm 3 mps 747 mmHg 79%
    07:00 +13°C° 0 mm 4 mps 747 mmHg 78%
    08:00 +14°C° 0 mm 4 mps 747 mmHg 72%
    09:00 +17°C° 0 mm 4 mps 746 mmHg 67%
    10:00 +19°C° 0 mm 5 mps 746 mmHg 61%
    11:00 +20°C° 0 mm 4 mps 746 mmHg 58%
    12:00 +21°C° 0 mm 4 mps 745 mmHg 56%
    13:00 +22°C° 0 mm 4 mps 745 mmHg 54%
    14:00 +21°C° 0 mm 4 mps 745 mmHg 57%
    15:00 +21°C° 0 mm 3 mps 744 mmHg 60%
    16:00 +20°C° 0 mm 3 mps 744 mmHg 63%
    17:00 +19°C° 0 mm 3 mps 744 mmHg 65%
    18:00 +18°C° 0 mm 4 mps 744 mmHg 68%
    19:00 +17°C° 0 mm 4 mps 744 mmHg 71%
    20:00 +17°C° 0 mm 4 mps 744 mmHg 72%
    21:00 +15°C° 0 mm 4 mps 744 mmHg 73%
    22:00 +15°C° 0 mm 4 mps 743 mmHg 74%
    23:00 +14°C° 0 mm 4 mps 743 mmHg 76%

    Tomorrow, 16 October, Wednesday

    Time Temperature Precipitation Wind Pressure Humidity
    00:00 +14°C° 0 mm 3 mps 743 mmHg 77%
    01:00 +14°C° 0 mm 3 mps 743 mmHg 79%
    02:00 +14°C° 0 mm 3 mps 743 mmHg 76%
    03:00 +14°C° 0 mm 4 mps 743 mmHg 73%
    04:00 +14°C° 0 mm 4 mps 743 mmHg 71%
    05:00 +14°C° 0 mm 4 mps 743 mmHg 73%
    06:00 +14°C° 0 mm 5 mps 743 mmHg 75%
    07:00 +15°C° 0 mm 5 mps 744 mmHg 78%
    08:00 +16°C° 0 mm 6 mps 744 mmHg 73%
    09:00 +17°C° 0 mm 7 mps 745 mmHg 69%
    10:00 +18°C° 0 mm 7 mps 746 mmHg 64%
    11:00 +18°C° 0 mm 7 mps 746 mmHg 62%
    12:00 +17°C° 0 mm 7 mps 746 mmHg 61%
    13:00 +17°C° 0 mm 7 mps 746 mmHg 59%
    14:00 +17°C° 0 mm 6 mps 747 mmHg 60%
    15:00 +16°C° 0 mm 5 mps 747 mmHg 60%
    16:00 +17°C° 0 mm 4 mps 747 mmHg 61%
    17:00 +15°C° 0 mm 4 mps 747 mmHg 62%
    18:00 +14°C° 0 mm 4 mps 747 mmHg 62%
    19:00 +13°C° 0 mm 3 mps 747 mmHg 63%
    20:00 +12°C° 0 mm 3 mps 748 mmHg 66%
    21:00 +12°C° 0 mm 4 mps 748 mmHg 69%
    22:00 +11°C° 0 mm 4 mps 748 mmHg 71%
    23:00 +11°C° 0 mm 4 mps 748 mmHg 72%

    Day after tomorrow, 17 October, Thursday

    Time Temperature Precipitation Wind Pressure Humidity
    00:00 +11°C° 0 mm 4 mps 748 mmHg 72%
    01:00 +11°C° 0 mm 4 mps 749 mmHg 72%
    02:00 +10°C° 0 mm 4 mps 749 mmHg 73%
    03:00 +10°C° 0 mm 4 mps 749 mmHg 73%
    04:00 +10°C° 0 mm 4 mps 749 mmHg 73%
    05:00 +10°C° 0 mm 4 mps 749 mmHg 73%
    06:00 +10°C° 0 mm 4 mps 749 mmHg 73%
    07:00 +10°C° 0 mm 4 mps 749 mmHg 73%
    08:00 +12°C° 0 mm 4 mps 749 mmHg 68%
    09:00 +13°C° 0 mm 4 mps 749 mmHg 64%
    10:00 +15°C° 0 mm 4 mps 749 mmHg 59%
    11:00 +17°C° 0 mm 4 mps 750 mmHg 58%
    12:00 +17°C° 0 mm 4 mps 750 mmHg 57%
    13:00 +18°C° 0 mm 4 mps 750 mmHg 56%
    14:00 +18°C° 0 mm 3 mps 750 mmHg 59%
    15:00 +17°C° 0 mm 2 mps 750 mmHg 62%
    16:00 +16°C° 0 mm 2 mps 750 mmHg 65%
    17:00 +16°C° 0 mm 2 mps 750 mmHg 67%
    18:00 +15°C° 0 mm 1 mps 750 mmHg 68%
    19:00 +14°C° 0 mm 1 mps 750 mmHg 70%
    20:00 +14°C° 0 mm 1 mps 750 mmHg 71%
    21:00 +14°C° 0 mm 1 mps 750 mmHg 71%
    22:00 +13°C° 0 mm 1 mps 750 mmHg 72%
    23:00 +13°C° 0 mm 1 mps 750 mmHg 71%

    18 October, Friday

    Time Temperature Precipitation Wind Pressure Humidity
    00:00 +13°C° 0 mm 1 mps 750 mmHg 71%
    01:00 +13°C° 0 mm 1 mps 750 mmHg 71%
    02:00 +13°C° 0 mm 1 mps 750 mmHg 71%
    03:00 +13°C° 0 mm 1 mps 751 mmHg 72%
    04:00 +13°C° 0 mm 1 mps 751 mmHg 72%
    05:00 +13°C° 0 mm 1 mps 751 mmHg 74%
    06:00 +13°C° 0 mm 1 mps 751 mmHg 76%
    07:00 +13°C° 0 mm 1 mps 751 mmHg 77%
    08:00 +15°C° 0 mm 1 mps 751 mmHg 72%
    09:00 +16°C° 0 mm 1 mps 751 mmHg 67%
    10:00 +18°C° 0 mm 1 mps 751 mmHg 62%
    11:00 +19°C° 0 mm 1 mps 751 mmHg 59%
    12:00 +20°C° 0 mm 1 mps 751 mmHg 56%
    13:00 +20°C° 0 mm 1 mps 750 mmHg 53%
    14:00 +20°C° 0 mm 1 mps 750 mmHg 56%
    15:00 +19°C° 0 mm 1 mps 750 mmHg 59%
    16:00 +18°C° 0 mm 1 mps 750 mmHg 63%
    17:00 +16°C° 0 mm 1 mps 750 mmHg 65%
    18:00 +15°C° 0 mm 1 mps 750 mmHg 67%
    19:00 +14°C° 0 mm 1 mps 750 mmHg 70%
    20:00 +14°C° 0 mm 1 mps 750 mmHg 71%
    21:00 +14°C° 0 mm 2 mps 750 mmHg 73%
    22:00 +13°C° 0 mm 2 mps 750 mmHg 75%
    23:00 +13°C° 0 mm 2 mps 750 mmHg 77%

    19 October, Saturday

    Time Temperature Precipitation Wind Pressure Humidity
    00:00 +13°C° 0 mm 1 mps 750 mmHg 78%
    01:00 +13°C° 0 mm 1 mps 750 mmHg 79%
    02:00 +12°C° 0 mm 1 mps 750 mmHg 82%
    03:00 +12°C° 0 mm 1 mps 750 mmHg 84%
    04:00 +12°C° 0 mm 1 mps 750 mmHg 86%
    05:00 +12°C° 0 mm 1 mps 750 mmHg 86%
    06:00 +13°C° 0 mm 1 mps 750 mmHg 85%
    07:00 +13°C° 0 mm 2 mps 750 mmHg 85%
    08:00 +14°C° 0 mm 2 mps 750 mmHg 80%
    09:00 +16°C° 0 mm 2 mps 750 mmHg 74%
    10:00 +17°C° 0 mm 2 mps 750 mmHg 69%
    11:00 +18°C° 0 mm 2 mps 750 mmHg 68%
    12:00 +19°C° 0 mm 1 mps 749 mmHg 66%
    13:00 +20°C° 0 mm 1 mps 749 mmHg 65%
    14:00 +20°C° 0 mm 1 mps 749 mmHg 67%
    15:00 +19°C° 0 mm 1 mps 749 mmHg 69%
    16:00 +19°C° 0 mm 1 mps 749 mmHg 71%
    17:00 +17°C° 0 mm 2 mps 749 mmHg 73%
    18:00 +16°C° 0 mm 2 mps 749 mmHg 75%
    19:00 +15°C° 0 mm 2 mps 749 mmHg 78%
    20:00 +15°C° 0 mm 2 mps 749 mmHg 79%
    21:00 +15°C° 0 mm 2 mps 748 mmHg 80%
    22:00 +14°C° 0 mm 2 mps 748 mmHg 81%
    23:00 +14°C° 0 mm 2 mps 748 mmHg 81%

    20 October, Sunday

    Time Temperature Precipitation Wind Pressure Humidity
    00:00 +13°C° 0 mm 3 mps 748 mmHg 81%
    01:00 +13°C° 0 mm 3 mps 747 mmHg 81%
    02:00 +13°C° 0 mm 3 mps 747 mmHg 81%
    03:00 +13°C° 0 mm 3 mps 747 mmHg 81%
    04:00 +13°C° 0 mm 3 mps 746 mmHg 80%
    05:00 +13°C° 0 mm 3 mps 746 mmHg 78%
    06:00 +13°C° 0 mm 4 mps 746 mmHg 76%
    07:00 +13°C° 0 mm 4 mps 746 mmHg 74%
    08:00 +15°C° 0 mm 5 mps 746 mmHg 67%
    09:00 +17°C° 0 mm 5 mps 746 mmHg 60%
    10:00 +20°C° 0 mm 6 mps 746 mmHg 52%
    11:00 +21°C° 0 mm 6 mps 746 mmHg 49%
    12:00 +22°C° 0 mm 6 mps 746 mmHg 45%
    13:00 +23°C° 0 mm 6 mps 746 mmHg 42%
    14:00 +22°C° 0 mm 5 mps 745 mmHg 47%
    15:00 +21°C° 0 mm 4 mps 745 mmHg 51%
    16:00 +20°C° 0 mm 3 mps 745 mmHg 56%
    17:00 +19°C° 0 mm 3 mps 745 mmHg 59%
    18:00 +18°C° 0 mm 3 mps 746 mmHg 61%
    19:00 +17°C° 0 mm 2 mps 746 mmHg 64%
    20:00 +17°C° 0 mm 2 mps 746 mmHg 66%
    21:00 +16°C° 0 mm 2 mps 746 mmHg 67%
    22:00 +16°C° 0 mm 2 mps 746 mmHg 69%
    23:00 +16°C° 0 mm 2 mps 746 mmHg 68%
    Show more